This demonstration page uses our WeatherBlox Daily Observations layout. Learn more.

40.92945, -100.16068

Hourly Observations for December 12, 2016

Temp ( °F °C ) Dew Point ( °F °C ) Humidity (%) Winds ( mph kmh ) Pressure ( in mb ) Visibility ( mi km ) Precip ( " mm )
12:15 am 00:15 Clear 16 -9.1 11 -11.9 80 80 SE 5 7 30.24 1024 10 16.0934 N/A
12:35 am 00:35 Clear 16 -8.9 11 -11.7 80 80 SE 7 11 30.24 1024 10 16.0934 N/A
12:55 am 00:55 Clear 17 -8.5 12 -11.3 80 80 SE 8 13 30.24 1024 10 16.0934 N/A
1:15 am 01:15 Clear 17 -8.4 12 -11.3 80 80 SSE 8 13 30.24 1024 10 16.0934 N/A
1:35 am 01:35 Partly Cloudy 18 -7.6 13 -10.5 80 80 SE 7 11 30.21 1023 10 16.0934 N/A
1:55 am 01:55 Mostly Cloudy 20 -6.7 14 -10 78 78 SSE 7 11 30.21 1023 10 16.0934 N/A
2:15 am 02:15 Mostly Cloudy 20 -6.7 14 -10 78 78 SSE 7 11 30.18 1022 10 16.0934 N/A
2:35 am 02:35 Mostly Cloudy 20 -6.5 15 -9.7 78 78 SE 7 11 30.18 1022 10 16.0934 N/A
2:55 am 02:55 Cloudy 21 -6.2 15 -9.3 79 79 SE 5 7 30.18 1022 10 16.0934 N/A
3:15 am 03:15 Cloudy 20 -6.8 15 -9.5 81 81 SSE 8 13 30.18 1022 10 16.0934 N/A
3:35 am 03:35 Cloudy 20 -6.9 15 -9.5 82 82 SSE 9 15 30.18 1022 10 16.0934 N/A
3:55 am 03:55 Partly Cloudy 19 -7.3 14 -9.8 83 83 SSE 7 11 30.15 1021 10 16.0934 N/A
4:15 am 04:15 Mostly Cloudy 21 -6 16 -8.7 81 81 S 7 11 30.15 1021 10 16.0934 N/A
4:35 am 04:35 Cloudy 22 -5.4 17 -8.5 79 79 S 6 9 30.12 1020 10 16.0934 N/A
4:55 am 04:55 Cloudy 22 -5.4 17 -8.4 80 80 S 3 6 30.12 1020 10 16.0934 N/A
5:15 am 05:15 Cloudy 24 -4.7 18 -7.6 80 80 SW 7 11 30.12 1020 10 16.0934 N/A
5:35 am 05:35 Cloudy 23 -4.8 19 -7.5 82 82 Calm 30.12 1020 10 16.0934 N/A
5:55 am 05:55 Cloudy 23 -4.9 19 -7 85 85 Calm 30.12 1020 10 16.0934 N/A
6:15 am 06:15 Cloudy 24 -4.5 19 -7 83 83 SW 5 7 30.12 1020 10 16.0934 N/A
6:35 am 06:35 Cloudy 26 -3.6 20 -6.8 79 79 SW 6 9 30.12 1020 10 16.0934 N/A
6:55 am 06:55 Cloudy 26 -3.3 19 -7 76 76 WSW 5 7 30.12 1020 10 16.0934 N/A
7:15 am 07:15 Cloudy 26 -3.1 20 -6.7 76 76 WSW 3 6 30.12 1020 10 16.0934 N/A
7:35 am 07:35 Cloudy 28 -2.5 20 -6.4 75 75 Calm 30.06 1018 10 16.0934 N/A
7:55 am 07:55 Cloudy 29 -1.4 22 -5.7 73 73 SW 8 13 30.06 1018 10 16.0934 N/A
8:15 am 08:15 Cloudy 30 -1 22 -5.6 71 71 W 6 9 30.06 1018 10 16.0934 N/A
8:35 am 08:35 Cloudy 31 -0.3 22 -5.6 68 68 WSW 6 9 30.06 1018 10 16.0934 N/A
8:55 am 08:55 Mostly Cloudy 32 0.1 21 -6 64 64 WSW 10 17 30.06 1018 10 16.0934 N/A
9:15 am 09:15 Cloudy 35 1.8 21 -6.1 56 56 WSW 17 28 30.03 1017 10 16.0934 N/A
9:35 am 09:35 Cloudy 35 1.8 20 -6.7 54 54 SW 21 33 30.03 1017 10 16.0934 N/A
9:55 am 09:55 Partly Cloudy 37 2.6 20 -6.7 51 51 SW 21 33 30.03 1017 10 16.0934 N/A
10:15 am 10:15 Mostly Cloudy 36 2.3 19 -7.4 49 49 SW 21 33 30.03 1017 10 16.0934 N/A
10:35 am 10:35 Mostly Cloudy 37 2.6 17 -8.1 46 46 WSW 17 28 30.06 1018 10 16.0934 N/A
10:55 am 10:55 Mostly Cloudy 36 2.1 17 -8.4 46 46 WSW 16 26 30.03 1017 10 16.0934 N/A
11:15 am 11:15 Partly Cloudy 39 3.8 18 -8 42 42 WSW 16 26 30.03 1017 10 16.0934 N/A
11:35 am 11:35 Partly Cloudy 41 4.9 17 -8.6 37 37 WSW 18 30 30 1016 10 16.0934 N/A
11:55 am 11:55 Partly Cloudy 42 5.5 17 -8.1 37 37 SW 21 33 29.97 1015 10 16.0934 N/A
12:15 pm 12:15 Sunny 43 6 18 -7.6 37 37 SW 21 33 29.94 1014 10 16.0934 N/A
12:35 pm 12:35 Sunny 43 6.1 20 -6.7 40 40 SW 23 37 29.94 1014 10 16.0934 N/A
12:55 pm 12:55 Sunny 44 6.4 20 -6.7 39 39 SW 20 31 29.91 1013 10 16.0934 N/A
1:15 pm 13:15 Sunny 44 6.8 20 -6.9 37 37 SW 22 35 29.91 1013 10 16.0934 N/A
1:35 pm 13:35 Sunny 45 7.1 19 -7.3 35 35 SW 21 33 29.91 1013 10 16.0934 N/A
1:55 pm 13:55 Sunny 46 7.6 19 -7.2 35 35 WSW 14 22 29.91 1013 10 16.0934 N/A
2:15 pm 14:15 Sunny 46 8 19 -7 34 34 SW 13 20 29.88 1012 10 16.0934 N/A
2:35 pm 14:35 Sunny 47 8.4 20 -6.6 34 34 WSW 12 19 29.88 1012 10 16.0934 N/A
2:55 pm 14:55 Sunny 47 8.4 20 -6.5 34 34 SSW 10 17 29.88 1012 10 16.0934 N/A
3:15 pm 15:15 Sunny 48 8.7 21 -6 35 35 SSW 9 15 29.85 1011 10 16.0934 N/A
3:35 pm 15:35 Sunny 47 8.5 21 -5.9 36 36 SW 7 11 29.85 1011 10 16.0934 N/A
3:55 pm 15:55 Sunny 47 8.4 21 -6 36 36 WSW 7 11 29.88 1012 10 16.0934 N/A
4:15 pm 16:15 Sunny 47 8.1 22 -5.7 37 37 SSW 3 6 29.91 1013 10 16.0934 N/A
4:35 pm 16:35 Sunny 45 7.1 21 -5.9 39 39 S 5 7 29.91 1013 10 16.0934 N/A
4:55 pm 16:55 Sunny 42 5.4 21 -5.9 44 44 SW 6 9 29.94 1014 10 16.0934 N/A
5:15 pm 17:15 Clear 35 1.6 18 -7.6 51 51 N 20 31 30.03 1017 10 16.0934 N/A
5:35 pm 17:35 Clear 31 -0.5 17 -8.5 55 55 NNE 18 30 30.06 1018 10 16.0934 N/A
5:55 pm 17:55 Clear 29 -1.8 15 -9.2 57 57 N 16 26 30.09 1019 10 16.0934 N/A
6:15 pm 18:15 Clear 28 -2.3 15 -9.6 58 58 NNE 16 26 30.09 1019 10 16.0934 N/A
6:35 pm 18:35 Clear 26 -3.1 14 -9.8 60 60 NNE 14 22 30.12 1020 10 16.0934 N/A
6:55 pm 18:55 Clear 25 -4.1 14 -10.1 63 63 N 13 20 30.18 1022 10 16.0934 N/A
7:15 pm 19:15 Clear 22 -5.6 12 -11.1 66 66 NNE 15 24 30.21 1023 10 16.0934 N/A
7:35 pm 19:35 Partly Cloudy 20 -6.4 11 -11.5 67 67 N 17 28 30.21 1023 10 16.0934 N/A
7:55 pm 19:55 Partly Cloudy 19 -7.5 10 -12.3 69 69 N 13 20 30.21 1023 10 16.0934 N/A
8:15 pm 20:15 Mostly Cloudy 18 -7.8 9 -12.7 68 68 N 16 26 30.27 1025 10 16.0934 N/A
8:35 pm 20:35 Mostly Cloudy 17 -8.5 8 -13.5 68 68 N 14 22 30.27 1025 10 16.0934 N/A
8:55 pm 20:55 Partly Cloudy 15 -9.5 6 -14.2 69 69 N 16 26 30.27 1025 10 16.0934 N/A
9:15 pm 21:15 Partly Cloudy 14 -10 6 -14.5 70 70 N 14 22 30.27 1025 10 16.0934 N/A
9:35 pm 21:35 Partly Cloudy 14 -10 6 -14.5 70 70 N 10 17 30.27 1025 10 16.0934 N/A
9:55 pm 21:55 Partly Cloudy 14 -10 6 -14.6 69 69 NNE 12 19 30.27 1025 10 16.0934 N/A
10:15 pm 22:15 Partly Cloudy 13 -10.5 4 -15.5 67 67 NNE 15 24 30.3 1026 10 16.0934 N/A
10:35 pm 22:35 Partly Cloudy 13 -10.7 4 -15.6 68 68 N 15 24 30.33 1027 10 16.0934 N/A
10:55 pm 22:55 Partly Cloudy 12 -11 4 -15.8 68 68 NNE 12 19 30.33 1027 10 16.0934 N/A
11:15 pm 23:15 Clear 12 -11.2 4 -15.7 70 70 N 14 22 30.36 1028 10 16.0934 N/A
11:35 pm 23:35 Partly Cloudy 11 -11.5 4 -15.6 72 72 NNE 10 17 30.36 1028 10 16.0934 N/A
11:55 pm 23:55 Partly Cloudy 11 -11.5 4 -15.5 73 73 N 10 17 30.36 1028 10 16.0934 N/A

Powered by AerisWeather